User: anonymous   Login
Location: NJAA Observatory
(40.6819°N, 74.8979°W)
Time: 03:56:04
(UTC-04:00)
Language:

Iridium 84 - Orbit

View from above orbital plane
View from above orbital plane
View from above satellite
View from above satellite

Ground track
Ground track

The orbit data is extracted from the following two-line orbital elements,

1 25530U 98066D   16148.53427288 -.00000011  00000-0 -10902-4 0  9993
2 25530  86.3952 151.2121 0002275  83.6784 276.4670 14.34217427921723
Epoch (UTC): 27 May 2016 12:49:21
Eccentricity: 0.0002275
inclination: 86.3952°
perigee height: 776 km
apogee height: 779 km
right ascension of ascending node: 151.2121°
argument of perigee: 83.6784°
revolutions per day: 14.34217427
mean anomaly at epoch: 276.4670°
orbit number at epoch: 92172

The dashed part of the orbit path shows where the satellite is in the earth's shadow,  

DLR